OBJECT S, 68432

Orbit data source: Space-Track

You're viewing an Uncataloged Satellite

Recently launched and/or uncataloged satellites may have evolving metadata. Metadata may include but not limited to: Owner, Maufacturer, Bus, Motor, and Mission.

OBJECT S, 68432 is a satellite in SSO that was launched on Mon, 30 Mar 2026 UTC via an FALCON 9 launch vehicle from the Air Force Western Test Range (AFWTR). Unknown objects in Earth's orbit typically refer to objects detected orbiting the Earth but have not yet been identified or cataloged. These objects could be anything from previously untracked satellites, spent rocket stages, debris from satellite collisions, or even natural meteoroids temporarily captured by Earth's gravity.

Loading next visibility...
Identifier
68432, 2026-067S
Orbit
SSO
Country
Flag of TBDTBD
Related business
None
Manufacturer
Unknown
Mission
Operational spacecraft
Bus & Motor
Unknown
Mass
Unknown
Launch date (UTC)
2026-03-30 (1 month ago)
Launch vehicle
FALCON 9
Launch site
Air Force Western Test Range (AFWTR)
Object type
Unknown
Shape & HBR
Unknown shape, 1.1 m
Radar Cross Section
RCS unknown

Expand to show TLE details & history
Last TLE update: 9 hours ago

TLE from 9 hours ago
0 OBJECT S
1 68432U 26067S   26127.14203612  .00004806  00000-0  23864-3 0  9995
2 68432  97.4538  86.2232 0003506 133.1141 227.0387 15.18147770  5715
Epoch: 2026-05-07T03:24Z
TLE epoch observation values (Epoch: 2026-05-07T03:24:31.920Z)
Latitude
-0.00002°
Longitude
170.09778°
Altitude
516.172 km
Speed
7.605 km/s
True Right ascension
05h 44m 53s
True Declination
0° 00' 00"
Sunlit
Object was in daylight at epoch
Visualization orbit readout
Latitude
Unknown
Longitude
Unknown
Altitude
Unknown
Speed
Unknown
Apparent Right ascension
Unknown
Apparent Declination
Unknown
Sunlit
N/A
Visualization observer readout
Local Sidereal Time
20:04:23
Azimuth
Unknown
Elevation
Unknown
Doppler factor
Unknown
Orbital elements
Apogee altitude
510.823 km
Perigee altitude
505.995 km
Semi-major axis
6,886.546 km
Eccentricity
0.00035
Inclination
97.4538°
RAAN
86.2232°
Arg. of periapsis
133.1141°
True anomaly
227.00931°
Mean anomaly
227.0387°
Eccentric anomaly
227.024°
Mean motion
3.79788 °/min
Orbital period
94.79 mins
BSTAR
0.00023864
Loading maneuver chart data...
Computing Atmospheric mass density...
Loading historical data...
Loading historical data...
Loading historical data...
Loading historical data...
Loading historical data...
Loading historical data...
Loading historical data...

Documentation

Showing up to 5 results
|